Wind_Speed
11 11 11 12 13 15 17 18 19 20 20 20 19 18 17 15 13 11 9 8 6 5 4 2 1 1 2 6 9 14 17 18 18 18 17 16 15 15 14 13 12 11 10
9 9 9 10 11 13 15 17 18 19 19 20 20 20 19 17 15 13 11 10 9 7 6 5 4 3 2 2 5 9 13 15 17 17 17 17 16 16 16 15 14 13 12
7 7 7 8 9 11 12 14 16 17 18 19 19 19 19 19 17 15 14 12 11 10 8 7 6 5 3 2 1 4 7 10 12 12 13 14 14 14 14 15 14 13 12
5 5 5 5 6 8 10 12 14 15 16 17 17 18 18 18 18 17 16 14 13 12 10 9 8 6 4 2 1 2 3 4 6 7 9 10 11 12 13 14 14 13 12
4 3 3 3 4 5 7 8 10 12 13 14 14 15 16 17 17 17 17 16 15 14 12 10 9 7 5 3 1 0 1 2 2 3 5 6 8 9 10 11 11 11 10
3 2 2 1 2 2 3 5 7 8 9 10 11 12 13 14 14 15 16 16 16 16 15 13 11 10 8 5 3 2 1 1 0 1 2 4 5 6 6 7 8 8 8
2 2 2 2 1 1 0 1 3 4 5 7 7 8 8 9 11 12 13 13 14 15 15 15 14 12 10 8 6 5 3 2 1 1 1 2 3 3 2 2 3 3 4
3 3 3 3 2 3 3 2 2 3 3 4 5 5 6 6 7 8 9 10 11 12 13 13 14 13 12 10 9 7 5 3 2 1 0 1 2 2 2 3 2 2 3
4 5 5 4 4 4 4 4 4 4 4 4 5 5 5 5 5 6 6 7 8 8 9 10 11 12 12 11 10 8 6 4 3 2 1 1 1 2 2 3 3 3 3
5 6 7 7 6 6 6 7 6 6 6 6 6 6 6 6 6 5 5 5 6 6 6 7 8 9 9 9 9 9 7 6 4 2 1 1 1 2 2 2 2 2 2
6 7 8 9 9 9 9 9 9 9 8 8 8 8 8 8 7 7 6 6 6 6 6 6 6 7 7 7 7 7 7 6 4 3 2 1 2 2 2 3 2 2 2
8 8 9 9 10 11 12 12 12 11 11 11 11 11 10 10 10 9 9 8 8 8 8 7 7 7 6 6 6 6 5 5 4 3 2 2 2 2 2 3 3 3 3
11 11 10 10 11 12 13 13 13 13 13 13 13 13 13 12 12 12 12 12 11 11 10 9 9 9 9 8 7 6 5 4 4 4 4 4 3 3 3 3 4 4 5
16 15 14 14 14 14 14 14 14 14 14 14 14 14 14 14 14 14 14 14 14 14 13 13 11 11 11 11 10 9 7 6 6 6 5 5 5 5 5 5 5 5 6
21 20 20 19 19 18 17 17 16 16 15 15 15 16 16 15 15 16 16 16 16 17 16 16 15 14 13 13 13 13 11 9 8 7 7 7 7 7 6 6 6 6 7
25 25 24 23 23 22 22 21 20 19 18 18 17 17 18 17 17 18 18 18 18 19 19 19 18 17 16 16 15 15 14 13 11 10 10 9 9 8 8 7 7 7 7
30 30 29 28 27 26 26 25 25 24 23 22 21 20 20 20 20 20 20 20 21 21 22 21 20 19 19 19 18 17 16 15 14 13 12 11 11 10 10 9 9 8 9
34 35 34 33 32 31 30 29 28 27 27 26 25 24 23 23 23 23 23 23 23 23 24 24 23 22 21 21 20 19 18 18 17 15 15 14 13 13 12 11 11 10 10
40 39 39 38 37 35 34 33 32 30 29 28 27 26 26 26 26 26 27 26 26 27 27 26 26 24 23 22 22 21 20 20 19 18 17 16 16 15 14 13 13 12 12
45 44 44 43 42 40 38 37 36 35 33 32 30 29 28 28 27 28 29 30 30 30 29 29 28 28 26 24 24 23 23 23 22 21 20 19 18 17 16 15 15 14 14
49 48 48 47 46 45 43 41 40 38 37 35 34 33 31 30 30 31 32 32 32 32 32 31 30 30 29 28 26 25 25 25 25 25 23 22 21 20 19 17 17 16 16
50 51 51 50 49 49 47 46 44 43 40 38 37 36 35 35 35 34 33 32 32 33 33 33 31 31 31 30 29 28 27 26 26 26 25 24 23 22 21 19 18 18 18
50 51 51 51 51 50 49 48 46 44 43 42 42 41 40 39 39 38 36 34 34 34 33 31 31 31 31 31 31 29 28 28 27 26 26 26 25 24 23 22 21 20 20
48 48 48 48 50 50 50 48 47 46 44 44 44 43 43 42 41 40 39 37 35 33 31 30 29 30 32 33 33 31 31 29 27 26 26 26 26 26 25 24 23 23 22
42 42 43 44 45 46 47 47 46 45 44 43 43 42 42 42 42 41 40 37 35 32 31 30 29 29 31 34 33 32 30 30 29 28 28 27 27 27 27 26 26 25 24
33 32 34 36 38 40 41 42 43 43 42 42 41 40 40 39 39 39 38 35 34 31 29 28 28 28 29 32 32 32 32 30 29 29 29 29 28 28 28 28 29 28 27
Wind_Direction
80 77 74 76 75 74 73 72 72 70 69 68 66 65 65 67 71 74 75 72 64 58 59 61 69 128 197 216 226 231 231 232 234 237 242 245 247 252 258 263 265 272 286
82 79 76 77 75 75 74 73 72 70 69 67 66 64 63 63 66 69 69 66 63 60 60 62 68 82 101 194 225 230 235 240 241 243 245 247 252 257 260 263 265 269 279
86 81 77 75 74 74 74 74 73 71 68 66 64 63 61 61 62 63 63 62 59 58 60 61 63 68 72 77 212 227 236 241 245 244 246 251 255 258 261 263 265 267 271
94 88 81 76 73 73 73 72 71 69 67 64 61 60 59 58 58 58 58 57 55 53 54 53 53 55 62 73 114 206 229 240 245 247 249 251 259 263 265 265 263 267 267
105 104 95 83 74 73 73 71 67 66 63 61 59 56 55 54 54 55 54 54 53 51 50 49 47 48 51 56 66 158 206 227 248 257 256 262 270 272 270 266 263 264 268
125 129 133 121 91 75 72 68 62 59 56 54 53 52 51 49 48 49 51 52 53 52 51 49 48 48 49 51 58 73 121 153 227 261 268 283 290 288 278 267 266 266 270
160 169 179 188 197 202 58 43 38 35 34 36 38 39 40 40 39 40 43 46 48 49 49 48 48 48 48 49 56 68 87 107 101 121 301 317 330 321 317 296 286 282 277
196 202 207 213 223 234 246 266 293 317 335 350 1 8 12 16 20 24 29 33 37 40 42 43 44 46 48 48 53 65 79 91 103 124 251 339 2 2 8 2 342 325 306
215 218 220 223 230 239 247 253 263 276 290 305 321 333 341 346 352 359 5 11 18 23 29 33 35 38 42 44 47 54 64 76 93 105 82 37 23 20 15 13 5 1 357
226 226 227 229 232 239 247 252 256 261 268 278 289 300 313 322 328 334 340 344 350 357 4 11 18 23 27 32 36 41 47 55 61 60 48 27 8 11 10 11 9 4 0
239 234 232 233 234 237 242 248 253 256 261 267 273 279 287 295 302 307 311 317 321 324 327 335 345 354 0 7 16 25 33 37 38 36 25 3 348 351 352 355 359 357 356
256 249 243 241 241 241 243 244 247 251 255 260 266 271 275 280 285 289 291 294 297 300 302 303 307 314 322 332 345 359 9 14 10 3 351 338 328 330 334 338 340 337 336
264 260 256 252 248 246 246 246 246 248 251 255 261 266 271 273 276 279 281 283 286 288 290 290 291 292 294 299 306 319 331 337 333 329 326 321 316 311 310 312 315 316 317
265 261 258 255 253 250 248 247 247 248 251 254 258 263 268 271 272 274 275 277 279 281 284 284 286 288 287 286 286 289 296 306 310 310 308 306 304 300 297 296 297 301 304
263 261 258 257 255 251 248 247 246 247 249 253 258 262 266 270 272 273 274 275 276 277 279 281 282 284 285 284 280 279 281 289 295 298 297 293 291 290 289 287 288 288 290
257 255 255 254 253 251 248 246 246 245 247 250 255 260 263 266 270 273 274 275 275 276 277 279 280 281 283 282 278 275 275 279 283 286 287 285 282 283 284 285 285 285 285
254 252 251 249 249 249 247 245 244 244 244 246 250 255 260 263 266 269 272 274 275 275 276 278 278 279 279 278 276 272 270 272 277 282 283 281 279 278 278 280 281 282 283
255 251 249 247 246 246 246 244 243 244 245 245 246 250 255 258 261 264 267 270 272 274 276 277 276 276 275 275 275 272 270 270 273 277 279 277 275 274 275 275 276 280 282
258 255 251 248 246 246 247 246 246 247 248 250 248 249 253 257 260 263 264 266 268 270 272 274 274 274 274 273 272 272 272 270 271 272 274 274 272 271 272 272 274 277 279
260 258 255 252 250 247 247 248 248 249 250 253 253 254 257 259 262 266 266 265 267 269 269 269 271 271 271 270 270 271 271 270 270 269 268 268 267 267 269 271 273 276 278
262 259 256 255 253 251 250 249 249 250 251 253 256 258 259 261 265 268 269 269 270 269 267 267 266 267 268 267 268 268 269 268 268 267 264 263 263 264 266 268 270 273 277
263 260 257 255 254 253 252 251 251 252 254 255 257 259 260 261 263 266 271 271 272 271 268 264 263 263 264 264 264 265 266 264 265 264 263 263 262 263 264 265 267 271 275
265 262 261 258 255 254 254 253 253 254 254 255 255 257 258 260 261 264 269 270 269 271 268 263 260 259 258 260 262 261 262 262 264 263 261 261 262 262 262 263 265 269 273
268 265 263 261 259 256 254 254 254 254 253 254 254 255 257 259 260 261 264 266 269 269 267 269 263 256 254 255 257 258 259 260 261 261 260 261 261 261 261 263 265 267 271
270 268 265 263 261 258 256 255 255 254 254 254 254 255 256 257 258 259 261 264 267 271 273 274 268 260 254 251 251 252 253 256 259 260 260 261 261 261 260 261 263 265 268
271 267 265 262 259 257 255 254 255 255 255 254 255 255 256 256 257 258 259 262 266 270 273 276 272 268 260 251 248 248 247 250 253 256 258 260 261 260 258 258 260 262 265
Height
5911 5912 5912 5911 5911 5910 5908 5907 5907 5906 5905 5905 5904 5904 5904 5903 5903 5903 5903 5903 5903 5903 5903 5903 5903 5904 5904 5906 5907 5908 5910 5912 5913 5914 5916 5917 5918 5920 5920 5921 5922 5922 5923
5913 5913 5913 5913 5913 5912 5911 5910 5909 5909 5908 5907 5907 5906 5906 5905 5905 5905 5905 5905 5905 5904 5904 5904 5904 5904 5905 5906 5906 5908 5909 5911 5912 5913 5914 5916 5917 5918 5919 5920 5920 5921 5921
5914 5914 5915 5915 5915 5914 5913 5913 5912 5911 5911 5910 5909 5909 5908 5908 5907 5907 5907 5906 5906 5906 5905 5905 5905 5905 5906 5906 5906 5907 5908 5910 5911 5912 5913 5914 5915 5916 5917 5918 5919 5919 5920
5915 5915 5916 5916 5916 5916 5915 5915 5914 5913 5913 5912 5912 5911 5911 5910 5909 5909 5908 5908 5908 5907 5907 5906 5906 5906 5906 5906 5907 5907 5908 5909 5910 5911 5912 5913 5915 5915 5916 5916 5917 5917 5918
5915 5916 5916 5916 5916 5916 5916 5916 5916 5915 5915 5914 5914 5914 5913 5913 5912 5911 5910 5910 5909 5909 5908 5908 5907 5907 5907 5907 5907 5908 5909 5910 5910 5911 5912 5913 5914 5914 5914 5915 5915 5916 5916
5916 5916 5916 5917 5917 5917 5917 5917 5917 5917 5916 5916 5916 5916 5915 5915 5914 5914 5913 5912 5911 5910 5910 5909 5909 5908 5907 5907 5907 5908 5909 5910 5911 5912 5913 5913 5914 5913 5914 5914 5915 5915 5915
5916 5916 5917 5917 5917 5917 5918 5918 5918 5918 5917 5917 5917 5917 5917 5917 5916 5916 5915 5914 5913 5913 5912 5911 5910 5910 5909 5908 5908 5909 5910 5910 5911 5912 5913 5913 5914 5914 5914 5914 5914 5914 5914
5915 5916 5916 5917 5917 5917 5917 5918 5918 5918 5918 5917 5917 5917 5917 5918 5918 5917 5917 5916 5915 5915 5914 5913 5912 5912 5911 5910 5910 5910 5910 5911 5912 5912 5913 5914 5914 5914 5914 5915 5915 5915 5915
5914 5915 5915 5916 5916 5916 5917 5917 5917 5917 5917 5917 5917 5917 5917 5917 5917 5917 5917 5917 5916 5916 5915 5915 5914 5914 5913 5912 5912 5911 5911 5912 5912 5913 5913 5914 5914 5915 5915 5915 5915 5915 5915
5913 5913 5914 5914 5914 5915 5915 5915 5915 5916 5916 5916 5916 5916 5916 5916 5916 5916 5917 5917 5916 5916 5916 5916 5915 5915 5914 5913 5913 5913 5912 5912 5913 5913 5914 5914 5914 5915 5915 5915 5915 5915 5915
5912 5912 5912 5912 5912 5912 5913 5913 5913 5914 5914 5914 5914 5914 5914 5914 5914 5915 5915 5915 5916 5916 5916 5915 5915 5915 5915 5914 5914 5913 5913 5913 5913 5913 5914 5914 5914 5914 5915 5915 5915 5915 5915
5910 5910 5909 5909 5910 5910 5910 5910 5911 5911 5911 5911 5911 5911 5912 5912 5912 5912 5913 5913 5914 5914 5914 5914 5914 5914 5914 5914 5914 5914 5913 5913 5913 5913 5914 5914 5914 5914 5914 5914 5914 5914 5914
5908 5908 5907 5907 5907 5907 5907 5907 5907 5908 5908 5908 5908 5908 5909 5909 5909 5910 5910 5910 5911 5911 5911 5912 5912 5912 5912 5912 5913 5913 5913 5913 5913 5913 5913 5913 5913 5913 5913 5913 5913 5913 5913
5905 5905 5904 5904 5904 5904 5904 5904 5904 5904 5905 5905 5905 5905 5905 5906 5906 5906 5907 5907 5907 5908 5908 5909 5909 5910 5910 5910 5910 5911 5911 5911 5911 5911 5912 5912 5912 5912 5912 5912 5912 5912 5912
5901 5900 5900 5900 5900 5900 5900 5901 5901 5901 5901 5901 5901 5901 5901 5902 5902 5903 5903 5903 5904 5904 5904 5905 5905 5906 5906 5907 5907 5907 5908 5908 5909 5909 5909 5909 5909 5910 5910 5910 5910 5909 5909
5895 5895 5895 5895 5894 5894 5895 5895 5896 5896 5897 5897 5897 5897 5897 5898 5898 5899 5899 5900 5900 5900 5900 5900 5901 5902 5902 5902 5903 5904 5904 5905 5905 5906 5906 5906 5907 5907 5907 5907 5907 5907 5907
5890 5889 5889 5889 5888 5888 5888 5889 5889 5890 5891 5891 5892 5892 5893 5893 5894 5894 5894 5895 5895 5895 5896 5896 5896 5897 5898 5898 5899 5900 5900 5901 5901 5902 5902 5903 5903 5904 5904 5904 5904 5903 5903
5882 5882 5881 5881 5882 5881 5881 5882 5882 5883 5884 5884 5885 5886 5887 5888 5888 5889 5889 5890 5890 5890 5890 5891 5891 5892 5893 5893 5894 5894 5895 5896 5897 5897 5898 5899 5899 5900 5900 5900 5900 5900 5900
5872 5872 5872 5873 5873 5874 5874 5874 5875 5876 5877 5877 5877 5879 5880 5881 5882 5883 5883 5884 5884 5884 5885 5885 5886 5887 5888 5888 5889 5889 5890 5891 5892 5892 5893 5894 5895 5896 5896 5896 5896 5896 5896
5860 5860 5861 5862 5863 5864 5866 5867 5868 5869 5870 5870 5871 5872 5874 5875 5876 5876 5877 5877 5877 5878 5878 5879 5880 5881 5882 5883 5883 5884 5884 5885 5886 5887 5888 5889 5890 5891 5891 5891 5892 5892 5892
5846 5847 5848 5849 5851 5854 5856 5858 5859 5861 5862 5864 5865 5866 5867 5868 5869 5870 5870 5870 5870 5871 5871 5872 5873 5874 5875 5877 5877 5878 5879 5880 5880 5881 5882 5883 5884 5885 5886 5886 5887 5887 5887
5832 5833 5834 5836 5838 5841 5844 5847 5850 5852 5854 5856 5857 5858 5859 5860 5861 5862 5863 5863 5864 5864 5863 5864 5865 5866 5868 5870 5871 5872 5873 5874 5874 5875 5876 5877 5878 5879 5880 5881 5881 5882 5881
5818 5819 5821 5823 5826 5829 5832 5835 5839 5842 5845 5847 5849 5850 5852 5853 5854 5855 5856 5857 5856 5857 5857 5857 5858 5859 5860 5862 5863 5865 5866 5867 5868 5869 5870 5871 5872 5872 5874 5875 5875 5876 5876
5805 5805 5807 5810 5812 5816 5820 5824 5827 5831 5835 5837 5839 5841 5843 5844 5846 5847 5849 5849 5849 5850 5850 5850 5850 5852 5853 5854 5856 5857 5859 5859 5861 5862 5863 5864 5865 5866 5867 5868 5869 5870 5870
5793 5794 5795 5798 5800 5804 5808 5812 5816 5820 5824 5827 5829 5831 5834 5835 5837 5839 5841 5842 5843 5843 5843 5843 5843 5844 5845 5846 5848 5849 5850 5852 5853 5855 5856 5858 5859 5860 5861 5862 5863 5863 5864
5782 5783 5785 5787 5789 5793 5797 5801 5805 5809 5813 5816 5819 5822 5824 5826 5828 5830 5833 5835 5836 5836 5836 5836 5837 5837 5837 5838 5840 5841 5843 5844 5846 5847 5848 5850 5851 5853 5854 5855 5856 5856 5857